TimeEDT,TemperatureF,Dew PointF,Humidity,Sea Level PressureIn,VisibilityMPH,Wind Direction,Wind SpeedMPH,Gust SpeedMPH,PrecipitationIn,Events,Conditions,WindDirDegrees,DateUTC
12:15 AM,32.0,28.4,87,30.22,10.0,Calm,Calm,-,N/A,,Clear,0,2012-10-11 04:15:00
12:36 AM,32.0,28.4,87,30.22,10.0,Calm,Calm,-,N/A,,Clear,0,2012-10-11 04:36:00
12:55 AM,32.0,30.2,93,30.23,10.0,Calm,Calm,-,N/A,,Clear,0,2012-10-11 04:55:00
1:15 AM,32.0,30.2,93,30.23,10.0,Calm,Calm,-,N/A,,Clear,0,2012-10-11 05:15:00
1:55 AM,32.0,28.4,87,30.22,10.0,Calm,Calm,-,N/A,,Clear,0,2012-10-11 05:55:00
2:15 AM,30.2,28.4,93,30.22,10.0,Calm,Calm,-,N/A,,Clear,0,2012-10-11 06:15:00
2:36 AM,32.0,30.2,93,30.22,10.0,Calm,Calm,-,N/A,,Clear,0,2012-10-11 06:36:00
2:55 AM,32.0,28.4,87,30.23,10.0,Calm,Calm,-,N/A,,Clear,0,2012-10-11 06:55:00
3:15 AM,28.4,26.6,93,30.23,10.0,Calm,Calm,-,N/A,,Clear,0,2012-10-11 07:15:00
3:36 AM,30.2,28.4,93,30.23,10.0,Calm,Calm,-,N/A,,Clear,0,2012-10-11 07:36:00
3:55 AM,32.0,28.4,87,30.24,10.0,Calm,Calm,-,N/A,,Clear,0,2012-10-11 07:55:00
4:15 AM,30.2,28.4,93,30.24,10.0,Calm,Calm,-,N/A,,Clear,0,2012-10-11 08:15:00
4:36 AM,30.2,28.4,93,30.25,10.0,Calm,Calm,-,N/A,,Clear,0,2012-10-11 08:36:00
4:55 AM,30.2,28.4,93,30.25,10.0,Calm,Calm,-,N/A,,Clear,0,2012-10-11 08:55:00
5:16 AM,30.2,28.4,93,30.26,10.0,Calm,Calm,-,N/A,,Clear,0,2012-10-11 09:16:00
5:36 AM,30.2,28.4,93,30.26,10.0,Calm,Calm,-,N/A,,Clear,0,2012-10-11 09:36:00
5:55 AM,32.0,28.4,87,30.27,10.0,Calm,Calm,-,N/A,,Clear,0,2012-10-11 09:55:00
6:16 AM,30.2,28.4,93,30.27,10.0,Calm,Calm,-,N/A,,Clear,0,2012-10-11 10:16:00
6:36 AM,30.2,28.4,93,30.27,10.0,Calm,Calm,-,N/A,,Clear,0,2012-10-11 10:36:00
6:55 AM,30.2,26.6,86,30.28,10.0,Calm,Calm,-,N/A,,Clear,0,2012-10-11 10:55:00
7:16 AM,28.4,26.6,93,30.27,10.0,Calm,Calm,-,N/A,,Clear,0,2012-10-11 11:16:00
7:36 AM,28.4,26.6,93,30.28,10.0,Calm,Calm,-,N/A,,Clear,0,2012-10-11 11:36:00
7:55 AM,30.2,28.4,93,30.28,10.0,Calm,Calm,-,N/A,,Clear,0,2012-10-11 11:55:00
8:16 AM,30.2,28.4,93,30.28,10.0,Calm,Calm,-,N/A,,Clear,0,2012-10-11 12:16:00
8:36 AM,32.0,30.2,93,30.29,10.0,Calm,Calm,-,N/A,,Clear,0,2012-10-11 12:36:00
8:55 AM,33.8,32.0,93,30.29,10.0,South,3.5,-,N/A,,Clear,170,2012-10-11 12:55:00
9:16 AM,35.6,32.0,87,30.29,10.0,South,3.5,-,N/A,,Clear,170,2012-10-11 13:16:00
9:36 AM,37.4,32.0,81,30.29,10.0,South,5.8,-,N/A,,Clear,190,2012-10-11 13:36:00
9:55 AM,41.0,32.0,70,30.29,10.0,South,5.8,-,N/A,,Clear,190,2012-10-11 13:55:00
10:16 AM,42.8,32.0,66,30.30,10.0,SSW,6.9,-,N/A,,Clear,210,2012-10-11 14:16:00
10:36 AM,46.4,32.0,57,30.29,10.0,SSW,9.2,-,N/A,,Clear,200,2012-10-11 14:36:00
10:55 AM,46.4,32.0,57,30.29,10.0,SSW,9.2,16.1,N/A,,Clear,210,2012-10-11 14:55:00
11:16 AM,48.2,32.0,54,30.28,10.0,SSW,10.4,-,N/A,,Clear,210,2012-10-11 15:16:00
11:35 AM,50.0,32.0,50,30.27,10.0,SSW,11.5,16.1,N/A,,Clear,210,2012-10-11 15:35:00
11:55 AM,51.8,30.2,44,30.27,10.0,SSW,9.2,-,N/A,,Clear,200,2012-10-11 15:55:00
12:16 PM,51.8,30.2,44,30.26,10.0,South,11.5,17.3,N/A,,Clear,190,2012-10-11 16:16:00
12:35 PM,53.6,30.2,41,30.25,10.0,SW,8.1,17.3,N/A,,Clear,220,2012-10-11 16:35:00
12:55 PM,53.6,30.2,41,30.24,10.0,WSW,9.2,-,N/A,,Clear,240,2012-10-11 16:55:00
1:16 PM,53.6,30.2,41,30.23,10.0,SW,10.4,-,N/A,,Clear,220,2012-10-11 17:16:00
1:55 PM,55.4,28.4,36,30.20,10.0,South,10.4,-,N/A,,Clear,190,2012-10-11 17:55:00
2:16 PM,55.4,28.4,36,30.19,10.0,SSW,10.4,-,N/A,,Clear,210,2012-10-11 18:16:00
2:35 PM,55.4,28.4,36,30.18,10.0,SW,6.9,19.6,N/A,,Clear,230,2012-10-11 18:35:00
2:56 PM,57.2,26.6,31,30.18,10.0,SW,12.7,19.6,N/A,,Clear,220,2012-10-11 18:56:00
3:16 PM,59.0,28.4,31,30.17,10.0,SW,10.4,17.3,N/A,,Clear,220,2012-10-11 19:16:00
3:35 PM,59.0,28.4,31,30.17,10.0,SSW,10.4,-,N/A,,Clear,210,2012-10-11 19:35:00
3:56 PM,59.0,28.4,31,30.16,10.0,SW,9.2,16.1,N/A,,Clear,230,2012-10-11 19:56:00
4:16 PM,59.0,28.4,31,30.16,10.0,WSW,5.8,-,N/A,,Clear,250,2012-10-11 20:16:00
4:35 PM,59.0,28.4,31,30.16,10.0,WSW,11.5,18.4,N/A,,Clear,250,2012-10-11 20:35:00
4:56 PM,59.0,28.4,31,30.16,10.0,WSW,9.2,16.1,N/A,,Clear,250,2012-10-11 20:56:00
5:16 PM,59.0,28.4,31,30.16,10.0,West,10.4,17.3,N/A,,Clear,270,2012-10-11 21:16:00
6:16 PM,55.4,30.2,38,30.15,10.0,SW,9.2,-,N/A,,Clear,230,2012-10-11 22:16:00
6:35 PM,53.6,30.2,41,30.14,10.0,SW,8.1,-,N/A,,Clear,230,2012-10-11 22:35:00
6:56 PM,51.8,30.2,44,30.16,10.0,West,4.6,-,N/A,,Clear,270,2012-10-11 22:56:00
7:16 PM,50.0,30.2,47,30.17,10.0,West,3.5,-,N/A,,Clear,260,2012-10-11 23:16:00
7:35 PM,50.0,32.0,50,30.17,10.0,WSW,3.5,-,N/A,,Clear,250,2012-10-11 23:35:00
7:56 PM,46.4,30.2,53,30.17,10.0,SSW,4.6,-,N/A,,Clear,210,2012-10-11 23:56:00
8:16 PM,46.4,32.0,57,30.17,10.0,Calm,Calm,-,N/A,,Clear,0,2012-10-12 00:16:00
8:35 PM,42.8,32.0,66,30.17,10.0,Calm,Calm,-,N/A,,Clear,0,2012-10-12 00:35:00
8:56 PM,44.6,32.0,61,30.17,10.0,SSW,3.5,-,N/A,,Clear,210,2012-10-12 00:56:00
9:15 PM,42.8,32.0,66,30.17,10.0,SSW,3.5,-,N/A,,Clear,210,2012-10-12 01:15:00
9:35 PM,44.6,32.0,61,30.17,10.0,SSW,3.5,-,N/A,,Clear,210,2012-10-12 01:35:00
9:56 PM,44.6,32.0,61,30.18,10.0,Calm,Calm,-,N/A,,Clear,0,2012-10-12 01:56:00
10:15 PM,42.8,32.0,66,30.18,10.0,SSW,4.6,-,N/A,,Clear,210,2012-10-12 02:15:00
10:56 PM,42.8,32.0,66,30.17,10.0,Calm,Calm,-,N/A,,Clear,0,2012-10-12 02:56:00
11:56 PM,42.8,33.8,70,30.18,10.0,Calm,Calm,-,N/A,,Clear,0,2012-10-12 03:56:00